TimeCST,TemperatureF,Dew PointF,Humidity,Sea Level PressureIn,VisibilityMPH,Wind Direction,Wind SpeedMPH,Gust SpeedMPH,PrecipitationIn,Events,Conditions,WindDirDegrees,DateUTC
12:42 AM,69.8,57.2,64,30.14,7.0,East,4.6,-,N/A,,Partly Cloudy,100,2013-03-14 06:42:00
1:50 AM,68.0,57.2,68,30.12,7.0,ESE,6.9,-,N/A,,Scattered Clouds,110,2013-03-14 07:50:00
2:40 AM,69.8,57.2,64,30.13,7.0,East,5.8,-,N/A,,Partly Cloudy,100,2013-03-14 08:40:00
3:40 AM,69.8,57.2,64,30.10,7.0,East,6.9,-,N/A,,Partly Cloudy,100,2013-03-14 09:40:00
4:52 AM,69.8,55.4,60,30.11,7.0,East,5.8,-,N/A,,Partly Cloudy,100,2013-03-14 10:52:00
5:42 AM,69.8,55.4,60,30.09,7.0,NE,11.5,-,N/A,,Mostly Cloudy,40,2013-03-14 11:42:00
6:44 AM,69.8,55.4,60,30.16,7.0,NE,11.5,-,N/A,,Mostly Cloudy,40,2013-03-14 12:44:00
7:45 AM,71.6,55.4,57,30.18,7.0,NNE,11.5,-,N/A,,Mostly Cloudy,30,2013-03-14 13:45:00
8:46 AM,71.6,55.4,57,30.22,8.0,NNE,13.8,-,N/A,,Mostly Cloudy,30,2013-03-14 14:46:00
9:47 AM,73.4,55.4,53,30.20,8.0,NNE,16.1,-,N/A,,Mostly Cloudy,30,2013-03-14 15:47:00
10:47 AM,77.0,59.0,54,30.20,8.0,North,16.1,-,N/A,,Mostly Cloudy,10,2013-03-14 16:47:00
11:50 AM,77.0,59.0,54,30.15,8.0,NNE,18.4,-,N/A,,Mostly Cloudy,30,2013-03-14 17:50:00
12:46 PM,77.0,59.0,54,30.19,8.0,NNE,16.1,-,N/A,,Mostly Cloudy,30,2013-03-14 18:46:00
1:46 PM,77.0,60.8,57,30.15,8.0,NNE,16.1,-,N/A,,Scattered Clouds,20,2013-03-14 19:46:00
2:48 PM,73.4,59.0,61,30.16,8.0,NE,19.6,-,N/A,,Scattered Clouds,40,2013-03-14 20:48:00
3:41 PM,73.4,57.2,57,30.12,8.0,NNE,16.1,-,N/A,,Scattered Clouds,30,2013-03-14 21:41:00
4:41 PM,71.6,59.0,64,30.13,8.0,NNE,16.1,-,N/A,,Scattered Clouds,30,2013-03-14 22:41:00
5:43 PM,69.8,59.0,68,30.10,8.0,NNE,13.8,-,N/A,,Mostly Cloudy,30,2013-03-14 23:43:00
6:46 PM,69.8,57.2,64,30.15,7.0,NNE,13.8,-,N/A,,Mostly Cloudy,30,2013-03-15 00:46:00
7:40 PM,68.0,57.2,68,30.17,7.0,NE,9.2,-,N/A,,Scattered Clouds,50,2013-03-15 01:40:00
8:45 PM,68.0,57.2,68,30.21,7.0,NE,13.8,-,N/A,,Scattered Clouds,50,2013-03-15 02:45:00
9:41 PM,68.0,55.4,64,30.19,7.0,NE,15.0,-,N/A,,Scattered Clouds,40,2013-03-15 03:41:00
10:49 PM,68.0,57.2,68,30.18,7.0,NE,12.7,-,N/A,,Scattered Clouds,50,2013-03-15 04:49:00
11:42 PM,68.0,55.4,64,30.14,7.0,NE,8.1,-,N/A,,Mostly Cloudy,50,2013-03-15 05:42:00